User: anonymous   Login
Location: Unspecified
(0.0000°N, 0.0000°E)
Time: 07:50:55
(UTC+01:00)
Language:

ARIANE DEB (SPELDA) - Orbit

View from above orbital plane
View from above orbital plane
View from above satellite
View from above satellite

Ground track
Ground track

The orbit data is extracted from the following two-line orbital elements,

1 27402U 02015D   14353.66796943  .00001728  00000-0  18833-2 0  1231
2 27402 003.3008 169.4796 7100187 228.7375 048.3226 02.46175122111470
Epoch (UTC): 19 December 2014 16:01:52
Eccentricity: 0.7100187
inclination: 3.3008°
perigee height: 340 km
apogee height: 33241 km
right ascension of ascending node: 169.4796°
argument of perigee: 228.7375°
revolutions per day: 2.46175122
mean anomaly at epoch: 48.3226°
orbit number at epoch: 11147

The dashed part of the orbit path shows where the satellite is in the earth's shadow,  

DLR